Weather History for Lee's Summit, MO

Change the Weather History Date:

Thursday, January 2, 2014

  Actual Average (KMKC) Record (KMKC)
Temperature  
Mean Temperature 9 °F -  
Max Temperature 17 °F 38 °F 68 °F (1997)
Min Temperature 1 °F 21 °F -2 °F (2001)
Degree Days  
Heating Degree Days 56    
Moisture  
Dew Point -2 °F    
Average Humidity 64    
Maximum Humidity 80    
Minimum Humidity 49    
Precipitation  
Precipitation 0.00 in - - ()
Sea Level Pressure  
Sea Level Pressure 30.47 in    
Wind  
Wind Speed 10 mph (NNW)    
Max Wind Speed 17 mph    
Max Gust Speed -    
Visibility 10 miles    
Events      
Averages and records for this station are not official NWS values.
T = Trace of Precipitation, MM = Missing Value Source: NWS Daily Summary

Daily Weather History Graph

Daily Weather History Graph

Search for Another Location

Airport:

Trip Planner

Search our weather history database for the weather conditions in past years. The results will help you decide how hot, cold, wet, or windy it might be!

Date:

Astronomy

Jan. 02, 2014 Rise Set
Actual Time 7:36 AM CST 5:06 PM CST
Civil Twilight 7:06 AM CST 5:36 PM CST
Nautical Twilight 6:33 AM CST 6:10 PM CST
Astronomical Twilight 6:00 AM CST 6:42 PM CST
Moon 8:19 AM CST (1/2) 7:03 PM CST (1/2)
Length of Visible Light 10h 30m
Length of Day
9h 30m
Waxing Crescent, 3% of the Moon is Illuminated
Jan 2
Waxing Crescent
Jan 7
First Quarter
Jan 15
Full
Jan 23
Last Quarter
Jan 30
New

Hourly Weather History & Observations

Time (CST) Temp. Windchill Dew Point Humidity Pressure Visibility Wind Dir Wind Speed Gust Speed Precip Events Conditions
12:53 AM 9.0 °F -9.0 °F 1.9 °F 73% 30.33 in 10.0 mi NNW 17.3 mph - N/A   Clear
1:53 AM 7.0 °F -9.1 °F 1.0 °F 77% 30.35 in 10.0 mi NW 12.7 mph - N/A   Clear
2:53 AM 5.0 °F -10.0 °F -0.9 °F 76% 30.38 in 10.0 mi NW 10.4 mph - N/A   Clear
3:53 AM 3.9 °F -11.3 °F -2.0 °F 76% 30.40 in 10.0 mi NNW 10.4 mph - N/A   Clear
4:53 AM 1.9 °F -13.8 °F -2.9 °F 80% 30.41 in 10.0 mi NNW 10.4 mph - N/A   Clear
5:53 AM 1.9 °F -11.8 °F -4.0 °F 76% 30.42 in 10.0 mi NNW 8.1 mph - N/A   Clear
6:53 AM 1.9 °F -11.8 °F -5.1 °F 72% 30.43 in 10.0 mi NW 8.1 mph - N/A   Clear
7:53 AM 1.0 °F -12.9 °F -5.1 °F 75% 30.45 in 10.0 mi NW 8.1 mph - N/A   Clear
8:53 AM 5.0 °F -10.0 °F -2.9 °F 70% 30.47 in 10.0 mi NW 10.4 mph - N/A   Partly Cloudy
9:53 AM 7.0 °F - -4.0 °F 61% 30.48 in 10.0 mi North - - N/A   Scattered Clouds
10:53 AM 10.9 °F 0.2 °F -4.0 °F 51% 30.50 in 10.0 mi NNW 6.9 mph - N/A   Clear
11:53 AM 14.0 °F 2.9 °F -2.0 °F 49% 30.48 in 10.0 mi WNW 8.1 mph - N/A   Mostly Cloudy
12:53 PM 15.1 °F 1.1 °F -0.9 °F 49% 30.47 in 10.0 mi WNW 12.7 mph - N/A   Clear
1:53 PM 16.0 °F 5.3 °F 1.0 °F 52% 30.46 in 10.0 mi NW 8.1 mph - N/A   Clear
2:53 PM 17.1 °F 7.6 °F 1.0 °F 50% 30.46 in 10.0 mi WNW 6.9 mph - N/A   Clear
3:53 PM 17.1 °F 6.6 °F 1.9 °F 52% 30.48 in 10.0 mi WNW 8.1 mph - N/A   Clear
4:53 PM 12.9 °F 1.6 °F 1.0 °F 59% 30.50 in 10.0 mi North 8.1 mph - N/A   Clear
5:53 PM 10.9 °F 0.2 °F -0.9 °F 59% 30.51 in 10.0 mi NNE 6.9 mph - N/A   Clear
6:53 PM 9.0 °F -0.9 °F -2.0 °F 61% 30.53 in 10.0 mi North 5.8 mph - N/A   Clear
7:53 PM 7.0 °F -3.3 °F -2.9 °F 64% 30.54 in 10.0 mi NNE 5.8 mph - N/A   Clear
8:53 PM 5.0 °F -5.6 °F -4.0 °F 66% 30.54 in 10.0 mi North 5.8 mph - N/A   Clear
9:53 PM 6.1 °F -0.9 °F -4.0 °F 63% 30.54 in 10.0 mi North 3.5 mph - N/A   Clear
10:53 PM 6.1 °F -2.8 °F -4.0 °F 63% 30.52 in 10.0 mi ENE 4.6 mph - N/A   Clear
11:53 PM 6.1 °F - -4.0 °F 63% 30.53 in 10.0 mi Calm Calm - N/A   Clear